• In Austria
  • List of Countries
  • For 7 days
  • Water Temperature
  • Satellite Maps
  • Weather Map
  • News
  • Weather Widgets
  • user-avatar
    Login

    Hourly Weather Andora

    Today, 24 September, Monday

    Time Temperature Precipitation Wind Pressure Humidity
    00:00 +12°C° 0 mm 3 mps 630 mmHg 78%
    01:00 +11°C° 0 mm 3 mps 630 mmHg 78%
    02:00 +12°C° 0 mm 2 mps 630 mmHg 77%
    03:00 +12°C° 0 mm 2 mps 630 mmHg 77%
    04:00 +12°C° 0 mm 2 mps 630 mmHg 79%
    05:00 +12°C° 0 mm 2 mps 630 mmHg 82%
    06:00 +11°C° 0 mm 3 mps 630 mmHg 84%
    07:00 +12°C° 0 mm 3 mps 631 mmHg 81%
    08:00 +13°C° 0 mm 2 mps 631 mmHg 77%
    09:00 +14°C° 0 mm 2 mps 632 mmHg 74%
    10:00 +15°C° 0 mm 2 mps 632 mmHg 69%
    11:00 +16°C° 0 mm 3 mps 632 mmHg 65%
    12:00 +17°C° 0 mm 3 mps 633 mmHg 62%
    13:00 +17°C° 0 mm 3 mps 633 mmHg 60%
    14:00 +17°C° 0 mm 3 mps 632 mmHg 57%
    15:00 +17°C° 0 mm 3 mps 632 mmHg 54%
    16:00 +14°C° 0.1 mm 3 mps 632 mmHg 61%
    17:00 +12°C° 0.1 mm 3 mps 631 mmHg 68%
    18:00 +10°C° 0.1 mm 3 mps 630 mmHg 74%
    19:00 +9°C° 0.1 mm 3 mps 630 mmHg 73%
    20:00 +8°C° 0.1 mm 2 mps 630 mmHg 71%
    21:00 +7°C° 0.1 mm 2 mps 630 mmHg 69%
    22:00 +7°C° 0 mm 2 mps 630 mmHg 67%
    23:00 +7°C° 0 mm 2 mps 630 mmHg 65%

    Tomorrow, 25 September, Tuesday

    Time Temperature Precipitation Wind Pressure Humidity
    00:00 +7°C° 0 mm 2 mps 630 mmHg 62%
    01:00 +6°C° 0 mm 2 mps 630 mmHg 63%
    02:00 +7°C° 0 mm 1 mps 630 mmHg 64%
    03:00 +7°C° 0 mm 1 mps 630 mmHg 64%
    04:00 +7°C° 0 mm 1 mps 630 mmHg 67%
    05:00 +6°C° 0 mm 1 mps 630 mmHg 69%
    06:00 +6°C° 0 mm 1 mps 630 mmHg 71%
    07:00 +9°C° 0 mm 1 mps 631 mmHg 65%
    08:00 +11°C° 0 mm 1 mps 632 mmHg 59%
    09:00 +14°C° 0 mm 2 mps 633 mmHg 53%
    10:00 +15°C° 0 mm 2 mps 634 mmHg 50%
    11:00 +16°C° 0 mm 2 mps 634 mmHg 48%
    12:00 +17°C° 0 mm 2 mps 634 mmHg 45%
    13:00 +17°C° 0 mm 2 mps 634 mmHg 48%
    14:00 +16°C° 0 mm 2 mps 634 mmHg 51%
    15:00 +16°C° 0 mm 2 mps 633 mmHg 53%
    16:00 +14°C° 0 mm 2 mps 633 mmHg 60%
    17:00 +13°C° 0 mm 2 mps 632 mmHg 67%
    18:00 +11°C° 0 mm 1 mps 632 mmHg 74%
    19:00 +10°C° 0 mm 1 mps 632 mmHg 77%
    20:00 +10°C° 0 mm 1 mps 632 mmHg 81%
    21:00 +9°C° 0 mm 1 mps 632 mmHg 84%
    22:00 +9°C° 0 mm 1 mps 632 mmHg 84%
    23:00 +8°C° 0 mm 2 mps 632 mmHg 84%

    Day after tomorrow, 26 September, Wednesday

    Time Temperature Precipitation Wind Pressure Humidity
    00:00 +7°C° 0 mm 2 mps 632 mmHg 84%
    01:00 +7°C° 0 mm 2 mps 632 mmHg 83%
    02:00 +7°C° 0 mm 2 mps 632 mmHg 82%
    03:00 +7°C° 0 mm 2 mps 632 mmHg 81%
    04:00 +7°C° 0 mm 2 mps 632 mmHg 80%
    05:00 +7°C° 0 mm 2 mps 632 mmHg 79%
    06:00 +7°C° 0 mm 2 mps 632 mmHg 78%
    07:00 +9°C° 0 mm 2 mps 633 mmHg 69%
    08:00 +12°C° 0 mm 2 mps 635 mmHg 61%
    09:00 +14°C° 0 mm 3 mps 636 mmHg 52%
    10:00 +16°C° 0 mm 3 mps 636 mmHg 49%
    11:00 +17°C° 0 mm 3 mps 637 mmHg 46%
    12:00 +19°C° 0 mm 3 mps 637 mmHg 42%
    13:00 +18°C° 0 mm 3 mps 637 mmHg 44%
    14:00 +18°C° 0 mm 3 mps 636 mmHg 45%
    15:00 +18°C° 0 mm 3 mps 636 mmHg 46%
    16:00 +16°C° 0 mm 3 mps 636 mmHg 55%
    17:00 +14°C° 0 mm 2 mps 635 mmHg 63%
    18:00 +12°C° 0 mm 2 mps 634 mmHg 72%
    19:00 +10°C° 0 mm 2 mps 634 mmHg 75%
    20:00 +10°C° 0 mm 1 mps 634 mmHg 78%
    21:00 +10°C° 0 mm 1 mps 634 mmHg 81%
    22:00 +9°C° 0 mm 1 mps 634 mmHg 82%
    23:00 +9°C° 0 mm 1 mps 634 mmHg 82%

    27 September, Thursday

    Time Temperature Precipitation Wind Pressure Humidity
    00:00 +9°C° 0 mm 1 mps 634 mmHg 82%
    01:00 +9°C° 0 mm 1 mps 633 mmHg 82%
    02:00 +9°C° 0 mm 1 mps 633 mmHg 82%
    03:00 +9°C° 0 mm 1 mps 633 mmHg 81%
    04:00 +8°C° 0 mm 1 mps 633 mmHg 81%
    05:00 +8°C° 0 mm 1 mps 633 mmHg 81%
    06:00 +8°C° 0 mm 1 mps 633 mmHg 80%
    07:00 +11°C° 0 mm 1 mps 634 mmHg 71%
    08:00 +14°C° 0 mm 1 mps 635 mmHg 62%
    09:00 +16°C° 0 mm 1 mps 636 mmHg 52%
    10:00 +18°C° 0 mm 2 mps 636 mmHg 49%
    11:00 +19°C° 0 mm 2 mps 637 mmHg 45%
    12:00 +20°C° 0 mm 2 mps 637 mmHg 42%
    13:00 +20°C° 0 mm 2 mps 636 mmHg 43%
    14:00 +20°C° 0 mm 2 mps 636 mmHg 44%
    15:00 +20°C° 0 mm 2 mps 635 mmHg 44%
    16:00 +18°C° 0 mm 2 mps 634 mmHg 54%
    17:00 +15°C° 0 mm 1 mps 633 mmHg 64%
    18:00 +13°C° 0 mm 1 mps 632 mmHg 74%
    19:00 +12°C° 0 mm 1 mps 632 mmHg 76%
    20:00 +11°C° 0 mm 1 mps 632 mmHg 78%
    21:00 +11°C° 0 mm 1 mps 632 mmHg 80%
    22:00 +11°C° 0 mm 1 mps 632 mmHg 80%
    23:00 +11°C° 0 mm 1 mps 631 mmHg 80%

    28 September, Friday

    Time Temperature Precipitation Wind Pressure Humidity
    00:00 +10°C° 0 mm 1 mps 631 mmHg 79%
    01:00 +10°C° 0 mm 1 mps 631 mmHg 79%
    02:00 +10°C° 0 mm 1 mps 630 mmHg 79%
    03:00 +10°C° 0 mm 1 mps 630 mmHg 78%
    04:00 +10°C° 0 mm 1 mps 630 mmHg 77%
    05:00 +10°C° 0 mm 1 mps 629 mmHg 75%
    06:00 +10°C° 0 mm 1 mps 629 mmHg 74%
    07:00 +12°C° 0 mm 1 mps 630 mmHg 64%
    08:00 +15°C° 0 mm 1 mps 631 mmHg 53%
    09:00 +19°C° 0 mm 1 mps 633 mmHg 43%
    10:00 +20°C° 0 mm 1 mps 633 mmHg 41%
    11:00 +21°C° 0 mm 1 mps 633 mmHg 39%
    12:00 +22°C° 0 mm 1 mps 633 mmHg 36%
    13:00 +22°C° 0 mm 1 mps 632 mmHg 38%
    14:00 +22°C° 0 mm 1 mps 632 mmHg 39%
    15:00 +22°C° 0 mm 1 mps 631 mmHg 40%
    16:00 +19°C° 0 mm 1 mps 630 mmHg 49%
    17:00 +16°C° 0 mm 1 mps 629 mmHg 58%
    18:00 +14°C° 0 mm 1 mps 629 mmHg 66%
    19:00 +13°C° 0 mm 1 mps 629 mmHg 68%
    20:00 +12°C° 0 mm 1 mps 628 mmHg 70%
    21:00 +12°C° 0 mm 1 mps 628 mmHg 72%
    22:00 +11°C° 0 mm 1 mps 628 mmHg 72%
    23:00 +11°C° 0 mm 1 mps 628 mmHg 72%

    29 September, Saturday

    Time Temperature Precipitation Wind Pressure Humidity
    00:00 +10°C° 0 mm 2 mps 628 mmHg 73%
    01:00 +10°C° 0 mm 2 mps 627 mmHg 72%
    02:00 +9°C° 0 mm 2 mps 627 mmHg 71%
    03:00 +9°C° 0 mm 2 mps 627 mmHg 70%
    04:00 +9°C° 0 mm 2 mps 627 mmHg 69%
    05:00 +9°C° 0 mm 2 mps 627 mmHg 68%
    06:00 +9°C° 0 mm 2 mps 627 mmHg 66%
    07:00 +12°C° 0 mm 1 mps 628 mmHg 58%
    08:00 +15°C° 0 mm 1 mps 629 mmHg 50%
    09:00 +19°C° 0 mm 1 mps 630 mmHg 42%
    10:00 +20°C° 0 mm 1 mps 631 mmHg 39%
    11:00 +21°C° 0 mm 1 mps 631 mmHg 37%
    12:00 +22°C° 0 mm 1 mps 631 mmHg 35%
    13:00 +22°C° 0 mm 1 mps 631 mmHg 35%
    14:00 +22°C° 0 mm 1 mps 630 mmHg 36%
    15:00 +22°C° 0 mm 1 mps 630 mmHg 37%
    16:00 +19°C° 0 mm 1 mps 629 mmHg 45%
    17:00 +16°C° 0 mm 1 mps 628 mmHg 53%
    18:00 +14°C° 0 mm 1 mps 628 mmHg 61%
    19:00 +13°C° 0 mm 1 mps 628 mmHg 64%
    20:00 +12°C° 0 mm 1 mps 628 mmHg 67%
    21:00 +12°C° 0 mm 1 mps 628 mmHg 69%
    22:00 +11°C° 0 mm 1 mps 628 mmHg 70%
    23:00 +11°C° 0 mm 1 mps 628 mmHg 71%
    Show more